Terminal Aerodrome Forecast
Issued by NWS Bismarck, ND

Home | Current Version | Previous Version | Text Only | Print | Product List | Glossary Off
Versions: 1 2 3 4 5 6 7 8 9 10 11 12 13 14 15 16 17 18 19 20 21 22

000
FTUS43 KBIS 171700
TAFBIS
TAF
KBIS 171732Z 1718/1818 13007KT P6SM -SN OVC012=

USA.gov is the U.S. government's official web portal to all federal, state and local government web resources and services.